Location: Foligno
(42.9600°N, 12.7050°E)
Time: 21:14:56
(UTC+01:00)

ISS - Pass Details

Date: 12 January 2018
Orbit: 402 x 407 km, 51.6° (Epoch: 17 January)

Event Time Altitude Azimuth Distance (km) Brightness Sun altitude
Exits shadow 04:51:28 11° 62° (ENE) 1,404 -0.4 -30.0°
Drops below altitude 10° 04:51:40 10° 65° (ENE) 1,465 -0.3 -30.0°
Sets 04:54:05 0° 82° (E) 2,325 1.2 -29.6°
